Content
SEND FEEDBACK

Daily
Averages
Monthly
Summary
United States of America

MATANUSKA VALLEY, ALASKA


Home > North America > United States > Alaska
Elevation: 233 feet     Latitude: 61 37N     Longitude: 149 06W

WEATHER
 
SELECT A DAY
Number of Records: 182,302;   Date Range: 1/1/95 - 9/30/14
 
SHARE

PRINT THIS DATA

[ ← Previous Day ]
WEATHER ALMANAC - JANUARY 23, 2013
[ Next Day → ]
[ °C ]   °F
Weather ElementAverageHighLow
Temperature31 °F35.1 °F (3:53 pm)23 °F (8:53 pm)
Dewpoint22.7 °F26.1 °F (8:53 am)17.1 °F (10:53 pm)
Humidity72.1 %92 % (7:53 pm)59 % (2:53 am)
Barometer29.35 in29.42 in (1:53 am)29.30 in (4:53 pm)
Wind Speed9.6 mph16.1 mph (7:53 am)
Weather ElementAverage
Visibility10 mi
Wind DirectionSSW (207.4 °)

Weather ElementTotal
Precipitation---
Heating Degree Days36 (Base 65)
Averaged from 23 records on January 23, 2013
WEATHER CONDITIONS BREAKOUT
WIND DIRECTION BREAKOUT
WEATHER BY HOUR - JANUARY 23, 2013
[ °C ]   °F
Local TimeTemperatureDewpointHumidityBarometerVisibilityWind DirectionWind SpeedGust SpeedPrecipitationEventsConditions
1:53 AM27.0 °F21.0 °F78 %29.42 in10.0 miCalmMostly Cloudy
2:53 AM33.1 °F19.9 °F59 %29.41 in10.0 miVariable5.8 mphMostly Cloudy
3:53 AM28.9 °F23.0 °F78 %29.40 in10.0 miNNE (20°)4.6 mphOvercast
4:53 AM34.0 °F21.9 °F61 %29.38 in10.0 miNorth (350°)13.8 mphOvercast
5:53 AM32.0 °F25.0 °F75 %29.37 in10.0 miNorth (350°)15.0 mphMostly Cloudy
6:53 AM33.1 °F24.1 °F70 %29.36 in10.0 miNorth (360°)12.7 mphOvercast
7:53 AM33.1 °F24.1 °F70 %29.35 in10.0 miNorth (350°)16.1 mphOvercast
8:53 AM33.1 °F26.1 °F75 %29.35 in10.0 miNorth (10°)9.2 mphOvercast
9:53 AM32.0 °F25.0 °F75 %29.34 in10.0 miNNW (340°)15.0 mphOvercast
10:53 AM33.1 °F25.0 °F72 %29.34 in10.0 miNorth (360°)10.4 mphOvercast
11:53 AM34.0 °F25.0 °F70 %29.34 in10.0 miNorth (360°)10.4 mphOvercast
12:53 PM34.0 °F24.1 °F67 %29.34 in10.0 miNorth (350°)12.7 mphOvercast
1:53 PM34.0 °F23.0 °F64 %29.33 in10.0 miNorth (350°)13.8 mphOvercast
2:53 PM34.0 °F23.0 °F64 %29.31 in10.0 miNorth (350°)13.8 mphMostly Cloudy
3:53 PM35.1 °F23.0 °F61 %29.31 in10.0 miNorth (360°)12.7 mphMostly Cloudy
4:53 PM34.0 °F21.9 °F61 %29.30 in10.0 miNorth (360°)15.0 mphScattered Clouds
5:53 PM33.1 °F21.9 °F64 %29.31 in10.0 miNorth (10°)11.5 mphClear
6:53 PM28.0 °F25.0 °F88 %29.33 in10.0 miNE (50°)5.8 mphClear
7:53 PM26.1 °F24.1 °F92 %29.34 in10.0 miCalmClear
8:53 PM23.0 °F19.9 °F88 %29.35 in10.0 miENE (70°)4.6 mphClear
9:53 PM26.1 °F23.0 °F88 %29.36 in10.0 miCalmClear
10:53 PM26.1 °F17.1 °F69 %29.37 in10.0 miNNE (20°)8.1 mphClear
11:53 PM26.1 °F17.1 °F69 %29.37 in10.0 miNorth (350°)9.2 mphClear
Hourly data recorded from PAAQ, located miles away from Matanuska Valley, Alaska







STORIES FROM OUR PARTNERS